H1 CPF 2 NER 2022 3 23 9 082 01 glonass138 H2 1805301 9138 43508 2022 3 23 0 0 0 2022 3 26 23 45 0 900 1 1 0 0 0 1 H9 10 0 59661 0.00000 0 16222267.910 -8558776.426 17753951.024 10 0 59661 900.00000 0 14872372.300 -6689044.103 19638516.055 10 0 59661 1800.00000 0 13561764.198 -4543431.089 21142488.229 10 0 59661 2700.00000 0 12343794.282 -2163010.897 22236708.650 10 0 59661 3600.00000 0 11264342.914 401074.293 22899937.015 10 0 59661 4500.00000 0 10359929.492 3089484.575 23119261.963 10 0 59661 5400.00000 0 9656231.032 5836898.166 22890353.276 10 0 59661 6300.00000 0 9167071.422 8574481.951 22217551.083 10 0 59661 7200.00000 0 8893923.420 11232515.809 21113789.990 10 0 59661 8100.00000 0 8825944.261 13743063.390 19600358.916 10 0 59661 9000.00000 0 8940543.674 16042579.679 17706500.314 10 0 59661 9900.00000 0 9204460.979 18074347.788 15468855.365 10 0 59661 10800.00000 0 9575306.574 19790644.174 12930764.675 10 0 59661 11700.00000 0 10003503.486 21154542.136 10141436.798 10 0 59661 12600.00000 0 10434547.592 22141278.117 7154999.836 10 0 59661 13500.00000 0 10811491.210 22739123.324 4029453.785 10 0 59661 14400.00000 0 11077544.938 22949723.670 825543.682 10 0 59661 15300.00000 0 11178687.057 22787893.308 -2394424.382 10 0 59661 16200.00000 0 11066169.107 22280870.176 -5567800.925 10 0 59661 17100.00000 0 10698810.223 21467064.798 -8632819.969 10 0 59661 18000.00000 0 10044981.603 20394355.232 -11529810.222 10 0 59661 18900.00000 0 9084195.467 19118000.485 -14202365.943 10 0 59661 19800.00000 0 7808229.605 17698260.994 -16598453.714 10 0 59661 20700.00000 0 6221738.524 16197827.263 -18671432.581 10 0 59661 21600.00000 0 4342323.921 14679165.792 -20380967.138 10 0 59661 22500.00000 0 2200060.329 13201894.743 -21693815.387 10 0 59661 23400.00000 0 -163505.096 11820300.311 -22584475.924 10 0 59661 24300.00000 0 -2696837.468 10581098.439 -23035682.025 10 0 59661 25200.00000 0 -5340322.159 9521535.797 -23038733.418 10 0 59661 26100.00000 0 -8028516.498 8667909.372 -22593659.711 10 0 59661 27000.00000 0 -10692651.524 8034566.000 -21709212.897 10 0 59661 27900.00000 0 -13263279.813 7623422.756 -20402689.604 10 0 59661 28800.00000 0 -15672959.271 7424027.093 -18699587.040 10 0 59661 29700.00000 0 -17858861.513 7414152.764 -16633099.777 10 0 59661 30600.00000 0 -19765196.727 7560905.022 -14243467.479 10 0 59661 31500.00000 0 -21345354.504 7822287.227 -11577186.617 10 0 59661 32400.00000 0 -22563672.307 8149161.567 -8686101.747 10 0 59661 33300.00000 0 -23396758.714 8487520.173 -5626394.262 10 0 59661 34200.00000 0 -23834317.317 8780969.925 -2457488.584 10 0 59661 35100.00000 0 -23879438.116 8973325.408 759102.741 10 0 59661 36000.00000 0 -23548345.521 9011200.088 3960972.420 10 0 59661 36900.00000 0 -22869614.789 8846486.043 7086026.923 10 0 59661 37800.00000 0 -21882890.891 8438617.448 10073686.694 10 0 59661 38700.00000 0 -20637164.422 7756522.266 12866054.989 10 0 59661 39600.00000 0 -19188677.474 6780179.810 15409032.988 10 0 59661 40500.00000 0 -17598547.485 5501718.433 17653360.145 10 0 59661 41400.00000 0 -15930208.501 3926006.771 19555560.440 10 0 59661 42300.00000 0 -14246776.545 2070713.107 21078776.937 10 0 59661 43200.00000 0 -12608448.562 -34170.650 22193479.483 10 0 59661 44100.00000 0 -11070042.753 -2347321.824 22878032.634 10 0 59661 45000.00000 0 -9678782.070 -4817556.791 23119113.442 10 0 59661 45900.00000 0 -8472412.479 -7385718.340 22911971.424 10 0 59661 46800.00000 0 -7477733.689 -9986904.008 22260525.715 10 0 59661 47700.00000 0 -6709603.154 -12552944.502 21177297.209 10 0 59661 48600.00000 0 -6170454.569 -15015030.941 19683176.335 10 0 59661 49500.00000 0 -5850350.905 -17306383.165 17807029.965 10 0 59661 50400.00000 0 -5727569.868 -19364849.058 15585153.960 10 0 59661 51300.00000 0 -5769697.502 -21135327.363 13060580.679 10 0 59661 52200.00000 0 -5935184.227 -22571913.158 10282253.682 10 0 59661 53100.00000 0 -6175298.107 -23639676.170 7304084.695 10 0 59661 54000.00000 0 -6436392.993 -24315997.122 4183910.412 10 0 59661 54900.00000 0 -6662395.554 -24591405.440 982369.046 10 0 59661 55800.00000 0 -6797405.510 -24469882.446 -2238281.384 10 0 59661 56700.00000 0 -6788298.118 -23968616.685 -5415379.634 10 0 59661 57600.00000 0 -6587217.521 -23117221.247 -8487088.276 10 0 59661 58500.00000 0 -6153853.917 -21956445.815 -11393606.245 10 0 59661 59400.00000 0 -5457406.529 -20536437.828 -14078342.259 10 0 59661 60300.00000 0 -4478147.636 -18914626.310 -16489025.279 10 0 59661 61200.00000 0 -3208519.980 -17153318.042 -18578729.380 10 0 59661 62100.00000 0 -1653719.702 -15317107.897 -20306792.503 10 0 59661 63000.00000 0 168261.097 -13470212.805 -21639610.813 10 0 59661 63900.00000 0 2227134.984 -11673841.957 -22551293.052 10 0 59661 64800.00000 0 4481342.925 -9983713.816 -23024162.344 10 0 59661 65700.00000 0 6879558.850 -8447824.071 -23049096.054 10 0 59661 66600.00000 0 9362612.538 -7104557.710 -22625697.530 10 0 59661 67500.00000 0 11865750.814 -5981223.547 -21762296.961 10 0 59661 68400.00000 0 14321142.926 -5093071.468 -20475781.866 10 0 59661 69300.00000 0 16660525.750 -4442832.271 -18791260.991 10 0 59661 70200.00000 0 18817878.753 -4020797.741 -16741568.613 10 0 59661 71100.00000 0 20732017.500 -3805435.919 -14366619.202 10 0 59661 72000.00000 0 22348997.829 -3764514.013 -11712625.375 10 0 59661 72900.00000 0 23624230.973 -3856680.066 -8831194.583 10 0 59661 73800.00000 0 24524221.949 -4033435.293 -5778322.361 10 0 59661 74700.00000 0 25027859.390 -4241412.712 -2613302.020 10 0 59661 75600.00000 0 25127203.862 -4424864.921 602427.819 10 0 59661 76500.00000 0 24827742.684 -4528255.250 3806475.284 10 0 59661 77400.00000 0 24148101.651 -4498842.435 6936703.566 10 0 59661 78300.00000 0 23119226.712 -4289149.381 9932432.069 10 0 59661 79200.00000 0 21783070.680 -3859211.689 12735607.301 10 0 59661 80100.00000 0 20190840.586 -3178511.077 15291921.077 10 0 59661 81000.00000 0 18400879.320 -2227512.136 17551854.973 10 0 59661 81900.00000 0 16476270.086 -998737.489 19471631.535 10 0 59661 82800.00000 0 14482263.459 502664.238 21014054.629 10 0 59661 83700.00000 0 12483633.777 2258882.242 22149223.573 10 0 59661 84600.00000 0 10542074.221 4239941.823 22855108.068 10 0 59661 85500.00000 0 8713738.200 6404717.663 23117973.429 10 0 59662 0.00000 0 7047028.495 8702421.329 22932648.352 10 0 59662 900.00000 0 5580724.388 11074504.140 22302629.919 10 0 59662 1800.00000 0 4342526.184 13456894.889 21240023.853 10 0 59662 2700.00000 0 3348074.138 15782485.216 19765320.225 10 0 59662 3600.00000 0 2600484.613 17983757.673 17907008.112 10 0 59662 4500.00000 0 2090421.713 19995449.443 15701035.524 10 0 59662 5400.00000 0 1796701.549 21757141.244 13190123.802 10 0 59662 6300.00000 0 1687403.810 23215663.762 10422948.550 10 0 59662 7200.00000 0 1721444.046 24327220.831 7453202.026 10 0 59662 8100.00000 0 1850540.373 25059140.045 4338554.460 10 0 59662 9000.00000 0 2021491.407 25391176.633 1139534.070 10 0 59662 9900.00000 0 2178668.695 25316314.921 -2081652.297 10 0 59662 10800.00000 0 2266617.399 24841032.807 -5262334.577 10 0 59662 11700.00000 0 2232654.036 23985017.308 -8340606.598 10 0 59662 12600.00000 0 2029349.940 22780342.573 -11256539.916 10 0 59662 13500.00000 0 1616793.735 21270144.694 -13953359.754 10 0 59662 14400.00000 0 964535.449 19506849.050 -16378559.105 10 0 59662 15300.00000 0 53128.477 17550025.048 -18484928.352 10 0 59662 16200.00000 0 -1124797.271 15463958.841 -20231479.703 10 0 59662 17100.00000 0 -2563977.642 13315046.477 -21584248.073 10 0 59662 18000.00000 0 -4246496.527 11169117.316 -22516952.624 10 0 59662 18900.00000 0 -6142309.830 9088800.199 -23011506.296 10 0 59662 19800.00000 0 -8210289.851 7131042.659 -23058363.737 10 0 59662 20700.00000 0 -10399746.719 5344886.755 -22656701.325 10 0 59662 21600.00000 0 -12652363.589 3769593.852 -21814426.361 10 0 59662 22500.00000 0 -14904464.886 2433195.718 -20548015.777 10 0 59662 23400.00000 0 -17089522.919 1351531.252 -18882188.005 10 0 59662 24300.00000 0 -19140798.321 527807.464 -16849414.845 10 0 59662 25200.00000 0 -20994004.181 -47298.711 -14489283.142 10 0 59662 26100.00000 0 -22589882.757 -395003.933 -11847719.060 10 0 59662 27000.00000 0 -23876587.382 -547275.939 -8976090.283 10 0 59662 27900.00000 0 -24811770.437 -545234.844 -5930203.832 10 0 59662 28800.00000 0 -25364290.509 -437167.124 -2769219.306 10 0 59662 29700.00000 0 -25515467.976 -276237.348 445501.111 10 0 59662 30600.00000 0 -25259837.162 -117995.242 3651583.389 10 0 59662 31500.00000 0 -24605364.354 -17784.031 6786849.757 10 0 59662 32400.00000 0 -23573123.291 -28159.934 9790520.799 10 0 59662 33300.00000 0 -22196442.380 -196431.994 12604388.367 10 0 59662 34200.00000 0 -20519559.809 -562426.058 15173936.855 10 0 59662 35100.00000 0 -18595843.054 -1156567.218 17449391.689 10 0 59662 36000.00000 0 -16485647.094 -1998361.502 19386675.474 10 0 59662 36900.00000 0 -14253900.396 -3095340.894 20948254.045 10 0 59662 37800.00000 0 -11967518.658 -4442516.437 22103857.017 10 0 59662 38700.00000 0 -9692753.098 -6022363.205 22831059.698 10 0 59662 39600.00000 0 -7492582.597 -7805338.842 23115715.764 10 0 59662 40500.00000 0 -5424256.978 -9750915.493 22952232.771 10 0 59662 41400.00000 0 -3537092.398 -11809083.763 22343685.247 10 0 59662 42300.00000 0 -1870609.549 -13922267.710 21301762.900 10 0 59662 43200.00000 0 -453091.237 -16027572.907 19846554.332 10 0 59662 44100.00000 0 699381.254 -18059275.460 18006169.457 10 0 59662 45000.00000 0 1583373.175 -19951449.484 15816206.835 10 0 59662 45900.00000 0 2208004.383 -21640624.351 13319074.958 10 0 59662 46800.00000 0 2594324.444 -23068361.138 10563179.437 10 0 59662 47700.00000 0 2774180.991 -24183640.466 7601990.851 10 0 59662 48600.00000 0 2788629.042 -24944961.243 4493010.609 10 0 59662 49500.00000 0 2685948.577 -25322061.469 1296654.485 10 0 59662 50400.00000 0 2519354.428 -25297187.734 -1924924.356 10 0 59662 51300.00000 0 2344496.038 -24865858.891 -5109049.584 10 0 59662 52200.00000 0 2216853.850 -24037090.648 -8193748.854 10 0 59662 53100.00000 0 2189143.761 -22833070.655 -11118968.907 10 0 59662 54000.00000 0 2308840.981 -21288297.096 -13827753.989 10 0 59662 54900.00000 0 2615929.616 -19448216.575 -16267363.563 10 0 59662 55800.00000 0 3140974.706 -17367418.532 -18390306.590 10 0 59662 56700.00000 0 3903599.635 -15107462.135 -20155271.579 10 0 59662 57600.00000 0 4911434.510 -12734427.135 -21527933.899 10 0 59662 58500.00000 0 6159580.900 -10316291.710 -22481624.451 10 0 59662 59400.00000 0 7630616.337 -7920247.321 -22997846.866 10 0 59662 60300.00000 0 9295139.078 -5610062.914 -23066633.498 10 0 59662 61200.00000 0 11112830.652 -3443608.496 -22686733.730 10 0 59662 62100.00000 0 13033991.931 -1470640.922 -21865631.525 10 0 59662 63000.00000 0 15001488.552 269056.549 -20619392.379 10 0 59662 63900.00000 0 16953024.247 1747104.428 -18972343.177 10 0 59662 64800.00000 0 18823646.976 2947468.731 -16956591.637 10 0 59662 65700.00000 0 20548383.040 3866876.723 -14611394.997 10 0 59662 66600.00000 0 22064888.913 4514691.154 -11982390.620 10 0 59662 67500.00000 0 23316009.930 4912250.359 -9120703.700 10 0 59662 68400.00000 0 24252138.865 5091703.886 -6081949.710 10 0 59662 69300.00000 0 24833275.879 5094394.449 -2925151.259 10 0 59662 70200.00000 0 25030703.908 4968855.951 288409.341 10 0 59662 71100.00000 0 24828209.735 4768513.287 3496379.349 10 0 59662 72000.00000 0 24222800.103 4549181.930 6636543.400 10 0 59662 72900.00000 0 23224883.352 4366473.489 9648026.404 10 0 59662 73800.00000 0 21857909.437 4273217.091 12472468.419 10 0 59662 74700.00000 0 20157483.703 4317005.483 15055148.921 10 0 59662 75600.00000 0 18169991.606 4537969.291 17346039.306 10 0 59662 76500.00000 0 15950791.626 4966873.109 19300763.955 10 0 59662 77400.00000 0 13562051.414 5623613.491 20881451.999 10 0 59662 78300.00000 0 11070316.585 6516182.152 22057464.288 10 0 59662 79200.00000 0 8543912.331 7640138.300 22805982.279 10 0 59662 80100.00000 0 6050284.825 8978612.985 23112448.152 10 0 59662 81000.00000 0 3653391.548 10502846.360 22970848.074 10 0 59662 81900.00000 0 1411247.609 12173236.836 22383833.261 10 0 59662 82800.00000 0 -626271.170 13940859.832 21362676.229 10 0 59662 83700.00000 0 -2419278.189 15749394.440 19927062.489 10 0 59662 84600.00000 0 -3939302.965 17537379.164 18104720.763 10 0 59662 85500.00000 0 -5170236.070 19240703.897 15930897.764 10 0 59663 0.00000 0 -6108753.066 20795234.919 13447686.686 10 0 59663 900.00000 0 -6764200.377 22139464.560 10703219.786 10 0 59663 1800.00000 0 -7157946.741 23217072.547 7750743.111 10 0 59663 2700.00000 0 -7322229.344 23979294.116 4647586.095 10 0 59663 3600.00000 0 -7298542.006 24386992.505 1454048.885 10 0 59663 4500.00000 0 -7135634.317 24412348.446 -1767772.194 10 0 59663 5400.00000 0 -6887206.713 24040094.138 -4955197.602 10 0 59663 6300.00000 0 -6609399.805 23268238.360 -8046191.706 10 0 59663 7200.00000 0 -6358185.253 22108250.927 -10980579.086 10 0 59663 8100.00000 0 -6186769.924 20584697.643 -13701225.356 10 0 59663 9000.00000 0 -6143124.588 18734340.282 -16155158.452 10 0 59663 9900.00000 0 -6267743.124 16604738.989 -18294607.542 10 0 59663 10800.00000 0 -6591728.302 14252415.536 -20077938.685 10 0 59663 11700.00000 0 -7135286.215 11740654.497 -21470468.587 10 0 59663 12600.00000 0 -7906693.852 9137034.630 -22445140.403 10 0 59663 13500.00000 0 -8901784.077 6510793.875 -22983048.611 10 0 59663 14400.00000 0 -10103970.250 3930138.126 -23073803.044 10 0 59663 15300.00000 0 -11484809.732 1459606.073 -22715725.466 10 0 59663 16200.00000 0 -13005082.766 -842400.404 -21915875.454 10 0 59663 17100.00000 0 -14616341.480 -2925818.034 -20689905.586 10 0 59663 18000.00000 0 -16262863.919 -4750765.319 -19061749.307 10 0 59663 18900.00000 0 -17883931.051 -6288951.583 -17063147.979 10 0 59663 19800.00000 0 -19416331.190 -7524594.768 -14733026.656 10 0 59663 20700.00000 0 -20796986.628 -8454811.444 -12116731.095 10 0 59663 21600.00000 0 -21965592.316 -9089464.748 -9265141.087 10 0 59663 22500.00000 0 -22867155.883 -9450478.710 -6233677.595 10 0 59663 23400.00000 0 -23454332.484 -9570649.669 -3081223.299 10 0 59663 24300.00000 0 -23689456.660 -9492006.604 131022.218 10 0 59663 25200.00000 0 -23546186.189 -9263790.963 3340730.277 10 0 59663 26100.00000 0 -23010689.202 -8940142.310 6485650.550 10 0 59663 27000.00000 0 -22082325.103 -8577588.291 9504814.777 10 0 59663 27900.00000 0 -20773790.975 -8232445.316 12339713.527 10 0 59663 28800.00000 0 -19110727.502 -7958239.750 14935423.446 10 0 59663 29700.00000 0 -17130800.859 -7803258.338 17241663.705 10 0 59663 30600.00000 0 -14882298.645 -7808330.815 19213761.921 10 0 59663 31500.00000 0 -12422297.973 -8004937.795 20813511.613 10 0 59663 32400.00000 0 -9814481.187 -8413723.348 22009905.533 10 0 59663 33300.00000 0 -7126689.038 -9043474.753 22779731.554 10 0 59663 34200.00000 0 -4428311.793 -9890612.543 23108020.222 10 0 59663 35100.00000 0 -1787625.188 -10939212.861 22988335.824 10 0 59663 36000.00000 0 730819.640 -12161562.215 22422905.470 10 0 59663 36900.00000 0 3068645.243 -13519222.638 21422583.424 10 0 59663 37800.00000 0 5175835.508 -14964564.191 20006650.825 10 0 59663 38700.00000 0 7012572.023 -16442702.199 18202453.720 10 0 59663 39600.00000 0 8550643.381 -17893759.553 16044885.293 10 0 59663 40500.00000 0 9774369.257 -19255360.491 13575721.078 10 0 59663 41400.00000 0 10681000.947 -20465252.173 10842818.772 10 0 59663 42300.00000 0 11280581.673 -21463944.315 7899197.153 10 0 59663 43200.00000 0 11595272.666 -22197255.899 4802011.187 10 0 59663 44100.00000 0 11658173.410 -22618661.181 1611442.754 10 0 59663 45000.00000 0 11511685.996 -22691335.226 -1610471.382 10 0 59663 45900.00000 0 11205493.024 -22389811.432 -4801051.224 10 0 59663 46800.00000 0 10794235.144 -21701179.704 -7898200.565 10 0 59663 47700.00000 0 10334987.357 -20625773.251 -10841624.464 10 0 59663 48600.00000 0 9884641.942 -19177313.666 -13574012.428 10 0 59663 49500.00000 0 9497309.997 -17382506.996 -16042163.215 10 0 59663 50400.00000 0 9221852.779 -15280106.913 -18198028.341 10 0 59663 51300.00000 0 9099648.441 -12919483.754 -19999653.280 10 0 59663 52200.00000 0 9162689.603 -10358759.098 -21411997.600 10 0 59663 53100.00000 0 9432092.893 -7662583.987 -22407617.847 10 0 59663 54000.00000 0 9917083.950 -4899653.641 -22967200.042 10 0 59663 54900.00000 0 10614500.994 -2140062.481 -23079931.753 10 0 59663 55800.00000 0 11508837.996 547390.237 -22743706.940 10 0 59663 56700.00000 0 12572825.554 3097832.188 -21965160.193 10 0 59663 57600.00000 0 13768524.890 5452778.060 -20759530.183 10 0 59663 58500.00000 0 15048888.665 7562316.220 -19150355.563 10 0 59663 59400.00000 0 16359722.741 9386932.035 -17169009.649 10 0 59663 60300.00000 0 17641966.160 10898893.275 -14854083.290 10 0 59663 61200.00000 0 18834193.221 12083141.374 -12250628.293 10 0 59663 62100.00000 0 19875232.292 12937653.230 -9409276.398 10 0 59663 63000.00000 0 20706791.143 13473260.391 -6385251.132 10 0 59663 63900.00000 0 21275978.306 13712935.141 -3237292.123 10 0 59663 64800.00000 0 21537614.502 13690575.404 -26512.967 10 0 59663 65700.00000 0 21456237.016 13449341.230 3184784.982 10 0 59663 66600.00000 0 21007712.897 13039614.292 6334319.623 10 0 59663 67500.00000 0 20180393.371 12516667.406 9361032.519 10 0 59663 68400.00000 0 18975761.091 11938143.007 12206267.484 10 0 59663 69300.00000 0 17408543.080 11361447.147 14814900.749 10 0 59663 70200.00000 0 15506284.487 10841168.831 17136401.333 10 0 59663 71100.00000 0 13308400.567 10426633.129 19125801.816 10 0 59663 72000.00000 0 10864745.873 10159690.603 20744561.477 10 0 59663 72900.00000 0 8233759.400 10072835.588 21961306.006 10 0 59663 73800.00000 0 5480261.666 10187732.017 22752430.362 10 0 59663 74700.00000 0 2672994.038 10514208.540 23102553.762 10 0 59663 75600.00000 0 -117999.098 11049765.209 23004818.526 10 0 59663 76500.00000 0 -2824038.256 11779612.939 22461027.134 10 0 59663 77400.00000 0 -5380417.621 12677244.882 21481614.637 10 0 59663 78300.00000 0 -7728847.807 13705516.868 20085456.387 10 0 59663 79200.00000 0 -9819632.335 14818192.933 18299513.901 10 0 59663 80100.00000 0 -11613488.128 15961892.396 16158324.592 10 0 59663 81000.00000 0 -13082934.839 17078357.998 13703344.007 10 0 59663 81900.00000 0 -14213195.377 18106950.758 10982152.028 10 0 59663 82800.00000 0 -15002570.040 18987267.186 8047537.415 10 0 59663 83700.00000 0 -15462268.598 19661768.784 4956477.613 10 0 59663 84600.00000 0 -15615707.390 20078312.630 1769033.159 10 0 59663 85500.00000 0 -15497301.006 20192475.462 -1452821.800 10 0 59664 0.00000 0 -15150799.811 19969571.986 -4646409.512 10 0 59664 900.00000 0 -14627243.697 19386280.529 -7749576.670 10 0 59664 1800.00000 0 -13982619.736 18431806.167 -10701911.243 10 0 59664 2700.00000 0 -13275323.053 17108530.263 -13445929.134 10 0 59664 3600.00000 0 -12563529.784 15432117.783 -15928202.148 10 0 59664 4500.00000 0 -11902594.187 13431076.578 -18100406.037 10 0 59664 5400.00000 0 -11342581.017 11145786.231 -19920267.210 10 0 59664 6300.00000 0 -10926038.366 8627036.528 -21352389.228 10 0 59664 7200.00000 0 -10686105.694 5934136.425 -22368942.763 10 0 59664 8100.00000 0 -10645037.325 3132672.400 -22950205.723 10 0 59664 9000.00000 0 -10813203.809 292009.626 -23084943.340 10 0 59664 9900.00000 0 -11188613.128 -2517359.815 -22770621.290 10 0 59664 10800.00000 0 -11756971.587 -5226511.457 -22013448.261 10 0 59664 11700.00000 0 -12492281.369 -7770713.906 -20828247.685 10 0 59664 12600.00000 0 -13357949.035 -10091876.458 -19238161.677 10 0 59664 13500.00000 0 -14308357.735 -12140717.896 -17274193.385 10 0 59664 14400.00000 0 -15290836.393 -13878567.277 -14974597.016 10 0 59664 15300.00000 0 -16247942.474 -15278722.958 -12384127.768 10 0 59664 16200.00000 0 -17119961.768 -16327314.818 -9553166.504 10 0 59664 17100.00000 0 -17847519.620 -17023635.401 -6536736.438 10 0 59664 18000.00000 0 -18374193.355 -17379927.960 -3393431.252 10 0 59664 18900.00000 0 -18649015.730 -17420642.163 -184275.707 10 0 59664 19800.00000 0 -18628763.932 -17181190.428 3028458.952 10 0 59664 20700.00000 0 -18279937.730 -16706258.668 6182461.537 10 0 59664 21600.00000 0 -17580343.614 -16047743.752 9216586.002 10 0 59664 22500.00000 0 -16520218.253 -15262405.334 12072031.836 10 0 59664 23400.00000 0 -15102844.081 -14409331.386 14693477.080 10 0 59664 24300.00000 0 -13344630.916 -13547324.236 17030142.578 10 0 59664 25200.00000 0 -11274659.730 -12732316.845 19036767.546 10 0 59664 26100.00000 0 -8933706.986 -12014927.507 20674478.332 10 0 59664 27000.00000 0 -6372789.255 -11438255.105 21911534.485 10 0 59664 27900.00000 0 -3651287.459 -11036006.846 22723938.573 10 0 59664 28800.00000 0 -834727.363 -10831036.513 23095898.625 10 0 59664 29700.00000 0 2007693.123 -10834354.210 23020134.775 10 0 59664 30600.00000 0 4805728.942 -11044649.079 22498024.354 10 0 59664 31500.00000 0 7490757.811 -11448345.316 21539582.396 10 0 59664 32400.00000 0 9998385.859 -12020189.739 20163277.434 10 0 59664 33300.00000 0 12270882.067 -12724347.177 18395685.194 10 0 59664 34200.00000 0 14259341.260 -13515958.695 16270985.840 10 0 59664 35100.00000 0 15925486.292 -14343098.259 13830313.193 10 0 59664 36000.00000 0 17243034.659 -15149046.459 11120967.319 10 0 59664 36900.00000 0 18198572.438 -15874786.166 8195504.663 10 0 59664 37800.00000 0 18791898.929 -16461615.198 5110722.583 10 0 59664 38700.00000 0 19035827.349 -16853765.543 1926557.452 10 0 59664 39600.00000 0 18955449.811 -17000917.859 -1295082.186 10 0 59664 40500.00000 0 18586897.540 -16860503.917 -4491524.470 10 0 59664 41400.00000 0 17975648.826 -16399698.255 -7600560.895 10 0 59664 42300.00000 0 17174456.576 -15597013.233 -10561665.886 10 0 59664 43200.00000 0 16240983.692 -14443428.410 -13317184.524 10 0 59664 44100.00000 0 15235247.054 -12943004.896 -15813464.213 10 0 59664 45000.00000 0 14216979.089 -11112957.310 -18001907.220 10 0 59664 45900.00000 0 13243019.299 -8983179.069 -19839922.854 10 0 59664 46800.00000 0 12364846.753 -6595239.907 -21291760.278 10 0 59664 47700.00000 0 11626358.239 -4000897.060 -22329205.508 10 0 59664 48600.00000 0 11061986.152 -1260181.918 -22932129.125 10 0 59664 49500.00000 0 10695235.401 1560858.220 -23088874.386 10 0 59664 50400.00000 0 10537700.743 4392669.176 -22796478.600 10 0 59664 51300.00000 0 10588605.317 7164845.394 -22060724.049 10 0 59664 52200.00000 0 10834879.081 9808821.634 -20896018.024 10 0 59664 53100.00000 0 11251772.971 12260489.144 -19325104.819 10 0 59664 54000.00000 0 11803981.986 14462628.100 -17378615.780 10 0 59664 54900.00000 0 12447228.993 16367055.880 -15094466.500 10 0 59664 55800.00000 0 13130241.699 17936402.666 -12517113.259 10 0 59664 56700.00000 0 13797038.714 19145441.669 -9696683.437 10 0 59664 57600.00000 0 14389427.751 19981919.917 -6687997.043 10 0 59664 58500.00000 0 14849610.114 20446856.473 -3549498.699 10 0 59664 59400.00000 0 15122781.330 20554297.280 -342121.080 10 0 59664 60300.00000 0 15159618.008 20330538.613 2871897.980 10 0 59664 61200.00000 0 14918545.987 19812853.182 6030221.453 10 0 59664 62100.00000 0 14367694.136 19047773.736 9071618.776 10 0 59664 63000.00000 0 13486451.446 18089007.266 11937147.962 10 0 59664 63900.00000 0 12266561.871 16995068.109 14571291.421 10 0 59664 64800.00000 0 10712710.633 15826729.669 16923024.053 10 0 59664 65700.00000 0 8842576.937 14644401.689 18946793.604 10 0 59664 66600.00000 0 6686350.222 13505542.770 20603395.036 10 0 59664 67500.00000 0 4285729.163 12462216.023 21860722.962 10 0 59664 68400.00000 0 1692443.841 11558889.551 22694388.403 10 0 59664 69300.00000 0 -1033638.804 10830573.153 23088188.668 10 0 59664 70200.00000 0 -3826749.218 10301368.580 23034421.775 10 0 59664 71100.00000 0 -6617698.169 9983493.598 22534039.540 10 0 59664 72000.00000 0 -9336507.021 9876820.543 21596636.168 10 0 59664 72900.00000 0 -11915077.804 9968948.807 20240272.082 10 0 59664 73800.00000 0 -14289793.680 10235808.646 18491135.478 10 0 59664 74700.00000 0 -16403942.716 10642771.598 16383047.091 10 0 59664 75600.00000 0 -18209864.890 11146221.615 13956816.489 10 0 59664 76500.00000 0 -19670733.216 11695521.561 11259461.100 10 0 59664 77400.00000 0 -20761894.612 12235292.822 8343302.053 10 0 59664 78300.00000 0 -21471714.227 12707912.180 5264953.500 10 0 59664 79200.00000 0 -21801887.496 13056120.450 2084224.525 10 0 59664 80100.00000 0 -21767206.417 13225632.108 -1137045.044 10 0 59664 81000.00000 0 -21394789.614 13167634.621 -4336191.996 10 0 59664 81900.00000 0 -20722808.575 12841070.419 -7450956.145 10 0 59664 82800.00000 0 -19798763.867 12214603.430 -10420700.888 10 0 59664 83700.00000 0 -18677384.572 11268185.276 -13187603.103 10 0 59664 84600.00000 0 -17418240.185 9994153.199 -15697788.176 10 0 59664 85500.00000 0 -16083166.620 8397811.767 -17902386.940 99